Starlink 30772

operational
NORAD ID: 58135 Int'l Des: 2023-162 Owner: SPXS Country: US Constellation: starlink
LEOCIRCULAR

About Starlink 30772

Description loading...

Live Position

Loading 3D Globe...

Upcoming Passes

Altitude History

Altitude vs Time

uPlot chart will show altitude changes over time

Two-Line Element Set

1 58135U 23162T 25258.58588926 -.00001212 00000-0 -74707-4 0 9996
2 58135 43.0059 5.0671 0001701 263.2470 96.8179 15.02525707105951
Epoch: Sep 15, 2025 • Age: 10 hours

Current Status

Altitude 561.0 km
Velocity 7.59 km/s
Sub-Earth Point 32.60°N, 141.55°E
Launch Date Oct 22, 2023
Age 1.9 years
Type internet

Technical Details

Classification Payload
Mass 730.00 kg
Dry Mass 700.00 kg
Total Mass 730.00 kg
Length 0.30 m
Diameter 4.10 m
Span 29.00 m
Shape Box + pan
Manufacturer SPXS
Bus Type Starlink V2M
Phase Status In Orbit
Owner/State SPXS/US

Large Constellations

Loading constellations...